RH
104 104 101 97 95 93 90 87 86 86 87 89 91 92 92 91 90 87 85 83 82 79 77 75 73 72 72 72 73 73 73 72 71 69 67 65 63 60 57 54 51 49 47 45 44 43 42 41 40 39 38 36 33 31 29 27 25 23 22 20 20 19 18 18 18 19 21 21 22 22 23 22 22 22 22 21 20 19 17 17 16 16 16 15 14
92 94 94 93 93 92 91 89 87 86 88 89 90 91 92 92 90 89 87 86 84 82 80 77 75 74 75 75 75 75 74 72 70 67 65 63 61 58 54 51 48 46 45 44 42 40 37 35 34 32 30 27 25 23 22 20 19 19 18 19 19 19 19 20 20 21 23 24 24 24 24 24 22 20 19 18 15 13 12 12 11 11 11 11 11
78 80 81 84 88 90 92 92 91 90 90 91 93 95 96 95 93 91 89 86 85 83 81 80 79 79 79 78 77 76 73 72 69 66 65 63 62 59 56 53 50 47 45 42 38 34 31 30 29 27 26 25 24 23 23 23 22 22 22 22 22 23 23 22 22 22 23 22 22 21 21 19 17 15 13 12 11 10 9 9 9 9 9 9 9
79 80 80 82 86 89 92 93 94 95 96 99 101 101 101 98 95 94 91 89 91 91 89 89 87 86 85 82 79 77 73 71 70 68 66 64 62 59 55 51 46 42 38 35 32 30 30 30 31 30 30 29 29 29 28 28 26 25 25 24 25 25 24 21 19 18 18 17 16 15 14 13 12 11 10 10 10 9 9 9 9 9 8 8 8
91 90 89 89 90 91 93 94 95 98 101 104 105 105 104 101 102 104 101 99 102 105 104 102 97 93 91 86 81 78 76 73 71 69 66 61 56 51 46 41 38 35 34 33 33 33 34 35 36 36 35 35 35 34 33 31 29 28 27 26 25 22 20 17 15 13 12 12 12 11 11 11 11 11 10 10 10 10 10 9 9 9 8 8 8
98 98 97 96 97 97 99 101 103 105 106 107 108 109 108 105 108 112 110 107 108 110 109 105 100 96 91 86 82 79 76 72 66 61 55 49 43 39 37 35 35 35 36 36 37 38 39 39 40 39 39 38 38 36 34 32 30 28 26 23 20 16 14 12 11 11 10 10 10 10 10 11 11 11 11 10 10 10 11 10 10 9 9 9 9
91 92 93 95 97 99 102 104 106 106 106 107 108 109 110 108 108 110 111 109 109 108 106 101 96 92 85 80 75 69 64 58 51 47 43 40 38 38 38 38 39 39 39 40 40 40 41 41 41 41 40 39 37 35 32 29 25 22 19 16 13 11 10 10 10 10 10 10 10 10 11 11 11 12 12 11 11 11 11 10 9 9 9 9 9
86 88 91 94 96 99 101 102 103 104 105 106 107 109 110 110 109 109 109 106 103 100 96 88 81 75 68 63 58 53 49 46 44 43 42 42 42 43 42 42 42 41 41 41 40 40 40 40 40 39 37 34 31 28 24 20 17 15 13 12 11 10 10 10 10 10 10 10 11 11 11 11 11 12 12 11 11 10 10 9 9 9 9 9 9
83 85 87 89 90 91 92 93 95 97 99 100 101 101 102 101 98 95 92 88 82 76 70 63 58 55 52 50 48 47 47 46 46 46 46 45 45 44 43 42 41 40 39 38 37 37 36 35 34 31 28 25 22 19 16 14 13 12 11 10 10 10 10 10 10 10 10 10 10 10 10 10 11 11 11 10 10 9 9 8 8 9 10 9 9
59 61 62 63 64 64 65 66 68 70 72 74 75 75 75 73 71 68 65 61 57 53 51 49 49 49 49 49 49 49 48 47 47 46 44 43 42 40 39 37 36 34 33 32 31 30 29 27 24 22 19 17 15 14 13 12 12 11 11 11 10 10 10 10 10 10 10 10 10 10 10 10 11 11 10 10 9 8 8 8 9 9 10 10 10
37 37 38 38 38 39 41 42 43 46 48 50 51 52 52 52 51 51 50 49 48 48 49 49 50 50 50 49 48 47 46 45 43 41 39 38 36 34 33 31 29 28 26 25 24 23 21 19 17 16 14 14 13 13 13 12 12 12 11 11 11 10 10 10 10 10 10 10 10 10 10 11 12 11 10 10 9 8 8 9 9 9 9 10 10
34 34 34 35 36 37 38 39 41 43 44 45 46 47 48 48 47 47 47 47 48 48 48 48 47 46 45 45 43 42 41 39 37 35 33 31 29 27 26 24 22 21 20 19 18 17 16 15 14 14 14 13 13 13 13 13 12 12 11 10 10 10 10 10 10 10 10 10 10 10 11 11 11 11 10 9 8 8 8 9 9 8 9 9 9
36 36 37 37 38 38 39 40 42 42 43 44 44 43 43 42 42 42 42 43 43 43 42 41 41 40 39 38 37 35 33 32 29 28 26 24 22 20 19 18 17 17 16 15 15 14 14 14 14 14 14 14 14 14 14 13 12 11 10 10 10 10 10 10 10 10 9 9 9 10 10 9 9 9 8 7 7 8 8 8 8 7 8 8 8
35 35 35 36 36 37 37 38 39 38 38 37 36 35 34 34 34 35 35 35 35 35 35 34 33 33 32 30 29 28 26 24 22 21 20 18 17 16 15 15 15 14 14 14 14 14 14 15 15 15 15 15 14 14 12 11 11 10 9 10 10 11 11 11 10 9 9 8 8 9 9 9 8 8 8 7 7 8 8 7 7 7 7 8 8
33 34 34 34 34 35 35 35 34 33 31 30 29 28 29 29 29 29 29 29 29 28 28 27 26 25 24 23 22 20 19 18 17 16 15 15 14 13 13 14 14 14 14 14 14 15 15 15 15 15 15 14 13 12 11 10 9 9 10 10 10 10 10 10 10 9 8 8 8 8 9 9 8 8 8 8 8 8 8 7 8 7 7 8 8
30 31 31 31 31 31 31 30 29 28 26 26 26 26 26 26 26 25 25 24 24 23 22 21 20 19 18 17 16 16 15 14 14 13 13 13 12 12 13 13 14 14 14 15 16 16 16 15 15 14 14 13 12 11 10 10 9 9 10 10 10 10 10 10 10 9 8 8 8 8 9 9 9 9 8 8 8 8 8 8 8 8 8 8 9
22 23 23 23 23 23 23 22 22 22 22 22 22 21 21 21 21 20 20 19 18 17 16 15 15 15 14 14 14 14 13 13 12 12 12 12 13 13 13 14 14 15 15 16 16 16 16 15 15 14 14 13 12 11 10 9 9 9 10 10 10 10 10 10 10 9 9 9 8 8 9 9 9 9 9 8 8 8 8 9 9 9 9 10 10
15 15 15 16 16 16 16 16 16 16 16 16 16 16 16 16 15 15 15 14 14 13 13 13 13 13 13 13 12 12 12 12 12 12 13 13 14 14 14 14 15 15 15 15 15 15 15 15 14 14 14 13 12 11 10 9 9 9 10 10 10 10 11 11 10 9 9 9 8 9 9 9 9 10 10 10 10 10 10 10 10 9 10 11 11
11 11 11 11 11 11 12 12 12 12 12 12 12 12 12 12 12 12 12 12 12 12 12 12 12 12 12 12 12 12 12 12 13 13 14 14 14 14 14 14 15 15 15 14 14 14 14 14 14 13 13 13 12 12 11 10 9 9 10 10 10 10 10 10 9 9 9 8 8 9 9 10 11 11 12 12 12 12 11 11 10 9 10 11 11
9 9 9 10 10 10 10 10 10 10 10 10 11 11 11 11 11 11 11 11 11 11 11 11 11 12 12 12 12 13 13 13 13 14 14 14 14 14 14 14 14 14 14 13 13 14 13 13 13 13 12 12 12 11 11 10 10 9 9 9 9 10 10 9 9 9 8 9 9 9 10 11 11 12 14 14 13 12 11 11 10 10 11 11 11
8 8 8 9 9 9 9 9 9 9 9 10 10 10 10 10 10 10 10 11 11 11 11 12 12 12 12 13 13 13 13 14 14 14 13 13 13 13 13 13 13 13 13 13 13 13 13 13 13 12 11 11 11 11 11 11 10 9 9 8 8 9 9 8 9 10 10 10 11 11 11 11 11 12 13 13 13 13 12 12 11 11 12 12 11
8 8 9 9 9 9 9 9 9 9 9 10 10 10 10 10 10 10 10 11 11 12 12 12 13 13 13 13 13 13 13 14 13 13 12 12 12 12 12 12 12 12 12 13 13 12 12 12 12 12 11 11 11 11 10 10 9 9 8 9 8 9 9 9 10 12 12 12 12 12 12 12 11 11 12 12 13 14 14 13 13 12 12 12 12
9 9 9 9 9 9 9 9 9 9 9 10 9 10 10 10 10 10 11 12 12 12 13 13 13 13 13 13 13 13 13 13 13 12 12 11 11 12 11 11 11 11 12 12 12 12 12 12 12 12 11 11 10 10 10 9 9 9 8 9 9 9 10 12 12 13 13 13 13 13 13 13 12 12 12 11 11 12 13 14 14 14 13 12 12
9 9 9 9 9 9 9 9 9 9 9 9 9 10 10 10 11 12 12 13 13 13 13 13 13 13 13 13 13 12 12 12 12 11 11 11 11 11 11 11 11 11 11 11 11 11 11 12 12 11 11 11 10 10 9 9 9 9 9 9 9 10 11 12 13 13 14 14 15 15 14 14 13 12 11 11 10 10 11 13 13 14 13 13 12
8 8 8 8 8 8 9 9 9 9 9 9 10 10 11 12 12 12 13 13 13 13 12 12 12 12 12 12 12 11 11 11 11 11 11 11 11 10 10 10 10 10 10 10 10 11 11 11 11 12 11 11 10 10 10 10 10 10 10 10 10 10 11 12 12 13 14 15 15 16 16 15 14 12 11 10 10 10 10 11 12 13 13 13 13
8 8 8 8 8 8 8 8 9 9 9 10 11 11 12 12 12 12 13 12 12 12 12 12 12 12 12 12 12 11 11 11 11 11 11 11 11 10 11 11 11 10 10 10 10 10 10 11 11 11 11 11 11 11 11 11 11 11 10 10 10 11 11 11 12 13 14 15 15 15 15 15 14 14 13 11 11 10 10 10 11 12 13 13 13
7 7 7 7 7 8 8 8 9 10 10 11 11 12 12 12 12 12 12 12 12 12 12 12 12 11 12 12 12 12 12 11 11 11 10 11 11 11 11 11 11 10 10 10 10 10 10 10 11 11 11 11 12 12 13 12 12 11 11 11 11 11 11 11 12 13 13 13 14 14 14 14 14 15 15 14 13 11 10 9 9 10 11 11 12
7 7 7 7 8 8 9 9 10 10 11 11 11 11 12 12 12 12 12 12 12 12 12 12 12 12 12 12 12 12 12 11 11 11 11 11 10 11 11 11 11 10 10 10 10 10 10 11 11 11 12 12 12 13 13 13 13 12 12 11 11 11 11 11 11 12 12 12 12 13 13 13 13 13 14 14 14 13 11 10 9 9 9 9 11
7 7 7 8 8 8 9 10 10 10 11 11 11 11 12 12 12 12 12 12 13 12 12 12 12 12 12 12 12 12 12 11 11 11 11 11 11 11 11 10 10 10 9 9 9 10 11 11 12 12 12 12 13 13 13 13 13 13 12 12 12 11 11 10 10 10 11 11 11 11 11 11 11 11 11 12 12 12 12 11 10 9 8 8 9
7 7 8 8 8 9 9 10 10 10 11 11 11 11 12 12 12 13 12 12 13 12 12 12 12 12 12 12 12 12 12 12 12 11 11 11 10 10 11 11 10 10 9 9 10 11 12 12 12 12 12 12 12 13 12 12 12 12 12 12 11 11 11 11 10 10 9 9 9 9 9 10 10 10 10 10 11 11 11 11 11 10 9 8 8
7 7 8 8 8 9 9 9 10 10 10 11 11 11 11 12 12 12 13 12 12 12 11 11 11 11 11 11 11 11 12 12 12 11 10 10 9 10 10 11 11 11 11 11 11 11 12 11 11 11 11 11 11 12 12 12 12 12 11 11 10 10 10 9 9 9 8 8 9 8 9 9 9 9 9 10 10 10 11 11 11 11 11 10 9
7 8 8 8 8 9 9 9 10 10 10 11 11 11 11 11 11 11 12 12 12 11 10 10 10 10 11 11 11 12 12 12 12 12 11 11 10 11 11 12 12 11 11 11 11 11 10 10 10 10 9 9 10 10 10 10 10 10 10 10 10 10 9 9 9 8 8 8 8 8 8 8 9 9 9 9 9 9 9 10 10 10 10 10 10
7 8 8 8 8 9 9 9 9 10 10 10 10 11 11 11 11 10 10 10 10 11 11 10 10 11 11 11 11 11 12 12 12 11 12 12 13 14 14 13 12 11 10 9 9 9 9 9 9 9 9 9 9 9 9 9 9 9 9 9 9 9 9 9 9 9 9 9 8 8 8 7 7 8 8 8 8 8 8 9 8 8 9 9 10
8 8 8 8 8 9 9 9 9 10 10 10 10 10 10 10 11 11 11 11 10 10 10 10 10 11 11 11 11 12 12 12 12 12 12 13 13 14 13 12 11 10 10 9 9 9 9 9 9 9 9 9 9 9 9 9 9 9 9 9 9 9 8 8 8 8 8 8 8 8 8 8 7 7 7 7 7 7 8 8 8 8 9 9 9
8 8 8 8 9 9 9 9 9 10 10 10 10 10 10 11 11 11 11 11 11 10 10 9 9 9 10 10 11 12 12 13 12 12 11 11 11 11 11 10 10 10 9 9 9 9 8 8 8 8 8 8 8 7 8 8 8 8 8 8 8 8 8 7 7 7 7 7 7 7 8 8 8 8 9 9 9 9 9 9 9 9 10 10 11
8 9 9 9 9 9 9 10 10 10 10 10 10 11 11 11 11 11 11 11 11 12 11 10 9 9 9 9 11 11 11 11 10 9 9 9 9 9 9 9 9 9 9 8 8 8 8 8 8 7 7 7 7 7 7 7 7 7 7 8 8 8 8 8 8 8 8 8 8 8 8 8 9 9 10 11 12 12 13 13 12 12 11 11 12
8 9 9 9 9 9 9 10 10 10 10 10 10 11 10 10 11 11 11 11 11 11 11 11 10 10 9 9 9 10 10 9 9 8 8 8 8 9 9 9 9 9 9 8 8 8 8 8 8 8 8 7 7 8 7 7 8 7 8 8 8 8 8 9 9 9 9 10 10 10 10 10 10 10 10 10 11 11 12 13 14 14 13 13 13
9 9 9 9 9 10 10 10 10 10 10 11 11 11 11 11 11 11 11 11 11 11 11 11 11 11 10 10 9 9 9 9 8 8 8 9 10 11 11 12 12 11 10 10 9 8 8 8 8 8 8 8 8 9 9 9 9 9 9 9 9 10 10 10 11 11 11 11 11 11 11 11 11 11 10 10 10 10 10 10 11 12 13 13 14
9 9 9 9 9 10 10 10 10 10 10 10 10 11 11 11 11 11 11 11 11 12 12 12 11 11 10 10 9 9 9 9 10 10 10 11 12 13 13 14 13 13 12 12 11 10 10 10 9 9 10 10 10 10 11 11 11 11 11 11 11 11 12 12 12 12 11 11 11 11 11 11 11 11 11 10 10 10 10 9 9 9 9 10 11
9 9 9 10 10 10 11 11 11 11 10 10 11 11 11 11 11 11 11 12 12 12 12 11 10 10 9 9 10 11 12 13 13 12 12 12 12 13 13 14 14 14 13 13 13 12 12 11 11 11 11 11 12 12 13 13 13 13 13 13 12 12 12 12 12 12 12 11 11 11 10 10 10 9 9 9 9 10 10 10 10 9 9 9 9
9 9 9 10 10 11 11 11 10 10 10 10 11 11 11 10 11 12 12 12 12 12 11 10 9 9 9 10 12 13 14 15 14 13 12 12 12 12 13 13 14 14 14 13 13 13 13 12 13 12 12 12 13 13 13 14 14 14 15 15 15 15 14 14 13 13 13 12 12 11 11 11 11 11 11 10 10 10 11 10 10 10 9 9 8
9 9 9 9 10 10 10 10 10 10 10 11 11 11 11 12 12 13 13 12 11 10 10 9 9 10 12 13 14 15 15 14 14 13 13 13 12 12 12 13 13 13 13 13 13 14 14 14 14 14 13 13 13 13 13 13 14 14 15 15 15 15 14 14 14 13 13 12 12 13 13 13 12 12 12 12 11 10 9 9 8 8 8 8 7
9 9 9 9 9 10 10 10 10 10 11 11 11 11 12 13 13 12 11 10 10 9 9 10 12 13 14 15 14 14 14 13 13 13 13 13 13 13 13 13 13 13 13 13 14 14 14 14 14 14 14 14 14 14 13 13 13 13 13 13 13 13 13 13 13 13 13 13 13 13 12 12 11 10 10 9 9 9 8 8 7 7 7 7 7
9 9 9 9 9 10 10 10 10 11 11 11 11 12 13 12 11 11 10 10 10 10 12 14 15 15 15 14 14 14 14 14 14 14 14 14 14 14 14 14 14 14 14 14 14 15 15 15 15 15 15 14 14 14 13 13 12 12 12 13 13 13 13 13 13 13 12 12 10 10 9 8 8 8 8 8 8 8 8 7 7 7 7 7 7
9 9 9 9 9 9 10 10 11 11 11 11 12 13 12 11 11 10 10 10 12 14 16 17 16 15 15 15 15 14 14 14 14 14 14 14 14 14 14 14 14 14 15 15 15 16 16 15 15 15 15 14 14 14 14 14 14 14 14 14 13 13 12 11 11 10 9 8 8 7 7 7 7 7 7 7 7 7 7 7 7 7 7 6 6
10 10 10 10 9 9 10 11 11 11 11 12 13 12 12 11 10 10 11 13 16 17 17 16 15 15 14 14 14 14 14 14 14 14 15 15 15 15 15 16 16 16 16 16 16 17 16 16 16 16 16 16 16 16 15 15 15 15 14 13 12 11 10 9 8 8 7 7 7 7 7 6 6 6 6 6 6 6 6 6 6 6 6 6 6
10 10 10 9 9 10 10 10 11 11 12 13 13 12 11 11 11 12 15 17 18 17 16 15 15 15 14 14 15 15 16 16 17 17 17 17 17 17 17 17 17 17 17 17 18 18 17 17 17 17 16 16 15 15 15 15 14 13 12 11 10 9 8 8 8 7 7 7 7 6 6 6 6 6 6 5 5 5 5 5 5 5 5 5 5
9 10 10 10 10 10 11 11 12 12 13 12 12 11 11 11 13 16 18 18 17 16 15 15 15 15 16 17 17 17 17 17 17 17 16 16 16 16 15 16 16 16 16 16 16 16 16 16 15 15 15 15 15 15 14 13 12 11 10 9 8 8 8 8 8 7 7 7 6 6 6 6 5 5 5 5 5 5 5 5 5 5 5 5 5
9 9 10 10 10 11 12 12 13 13 12 12 11 11 12 13 16 18 18 17 16 15 15 15 16 17 17 18 17 17 16 15 15 15 15 15 14 14 14 15 15 15 15 15 15 15 15 15 15 15 15 15 15 14 13 11 10 9 8 8 8 8 8 7 7 7 6 6 6 6 5 5 5 5 5 5 5 5 5 5 5 6 6 6 6
10 10 10 10 11 12 13 13 12 12 12 11 11 12 14 17 18 18 17 16 15 16 16 17 18 18 17 17 16 15 15 15 15 15 15 15 15 15 15 15 15 16 16 16 16 16 15 16 16 16 16 15 14 12 10 9 9 8 8 8 8 8 7 7 7 6 6 6 6 6 5 5 5 5 5 5 5 5 6 6 6 6 6 6 6
10 10 10 11 12 12 13 13 12 11 11 11 12 14 17 19 18 17 16 16 16 17 18 18 18 17 16 16 16 15 16 16 16 16 16 15 15 15 15 16 16 17 17 17 17 17 16 17 17 16 15 13 11 10 9 9 9 9 8 8 7 7 7 6 6 6 6 6 6 6 6 6 6 6 5 6 6 6 6 6 6 6 6 6 6
Wind_Speed
82 83 84 85 86 87 89 90 91 92 93 94 96 97 99 101 102 104 105 106 108 109 109 110 111 112 113 113 115 116 118 120 121 123 123 124 125 126 127 127 128 128 128 128 129 129 129 130 130 130 131 131 131 131 131 131 130 130 129 129 129 129 129 129 127 126 126 127 128 128 128 128 128 129 129 130 130 130 130 129 130 130 130 131 131
86 87 88 89 90 91 92 94 95 96 97 98 99 101 102 104 106 107 108 109 111 112 113 113 114 115 115 116 117 118 119 121 122 123 124 124 125 126 127 127 127 127 127 127 128 128 128 128 128 128 128 129 129 128 128 128 127 126 125 125 124 124 124 123 122 121 121 122 123 124 125 126 126 127 128 129 128 128 128 127 127 128 128 128 128
91 92 92 92 93 95 96 97 99 100 100 101 103 104 106 107 109 110 111 112 114 115 115 116 117 117 118 118 119 120 121 122 123 124 124 125 126 127 127 127 127 127 127 126 126 126 126 125 126 126 126 126 126 126 125 125 124 123 122 121 121 121 121 120 120 119 119 120 121 122 124 124 124 125 125 125 125 125 125 125 125 125 125 125 125
96 96 97 97 98 99 100 101 102 103 104 105 106 107 109 110 111 112 113 114 116 116 117 118 119 120 120 121 122 122 123 123 124 124 125 126 126 127 127 127 126 126 125 125 124 124 123 123 124 124 125 124 124 124 124 124 123 122 121 120 120 120 120 119 119 118 117 117 118 119 120 121 121 121 121 121 121 121 122 122 122 122 122 122 121
100 101 101 101 102 103 103 104 105 105 106 107 108 110 111 112 113 114 115 116 117 118 119 120 121 122 122 123 123 123 124 124 124 124 125 125 126 126 126 125 124 124 123 123 123 122 122 122 123 123 123 123 124 124 124 123 122 121 120 120 120 120 119 118 117 116 115 115 115 115 116 116 117 117 117 118 117 118 118 119 119 119 119 118 118
104 105 105 105 106 106 106 107 107 108 109 110 111 112 113 114 115 116 117 118 118 120 121 122 123 124 124 124 124 124 124 124 124 124 124 124 124 124 123 123 122 122 122 122 122 122 122 122 122 122 122 123 123 123 123 122 122 121 120 120 120 119 117 116 115 114 113 112 111 111 111 111 112 113 113 114 114 115 116 117 117 116 116 115 115
109 109 109 109 109 109 110 111 111 112 112 113 114 115 116 117 118 119 119 120 121 122 123 124 124 125 124 124 124 123 123 123 123 123 123 123 123 122 122 122 121 121 121 121 121 121 121 121 121 122 122 122 122 122 122 121 121 120 119 118 117 115 114 112 111 110 109 108 107 107 107 107 108 109 110 111 111 112 114 114 113 113 113 112 111
112 112 112 112 113 113 114 114 114 115 115 116 117 117 118 119 120 120 121 122 122 123 124 124 124 124 123 123 122 122 122 122 122 122 122 122 122 122 122 121 121 121 121 121 121 120 120 121 121 121 121 121 121 120 120 119 118 117 116 115 113 111 110 109 107 106 105 104 104 103 103 103 104 105 106 108 109 109 111 110 108 108 109 108 107
114 114 114 115 115 115 115 115 116 116 116 117 118 118 119 119 120 121 121 121 122 122 123 122 122 122 121 121 121 121 121 121 121 122 122 122 122 122 121 121 121 120 120 120 119 119 119 119 119 119 119 118 118 117 116 115 114 113 112 110 109 107 106 105 104 102 102 101 100 100 99 99 99 101 103 104 105 105 105 104 102 101 103 103 103
113 114 114 114 114 114 114 114 114 114 115 115 116 117 117 118 118 119 119 120 120 120 120 120 120 120 120 121 121 121 121 121 121 122 122 122 121 121 120 120 119 119 118 118 117 117 117 117 117 116 115 114 113 112 111 111 110 109 107 106 105 104 102 101 100 99 98 97 96 96 95 94 95 98 99 100 101 100 99 98 96 95 97 97 98
109 110 110 110 109 109 110 110 110 111 111 112 113 114 115 116 116 117 118 118 118 118 118 119 119 119 120 120 120 121 121 121 121 121 121 121 120 119 118 118 117 116 116 115 115 115 114 113 112 111 110 109 108 108 107 107 106 105 104 103 102 100 99 97 96 95 95 93 92 91 91 91 92 94 95 96 96 95 93 92 91 91 93 92 93
106 106 106 106 107 107 107 107 108 109 110 111 112 113 113 114 115 115 116 116 117 117 117 118 118 119 119 119 119 120 120 120 120 120 119 119 118 116 116 115 114 113 112 112 111 110 109 108 107 107 106 105 105 104 104 104 103 102 101 100 98 96 95 94 93 92 91 90 88 87 88 89 89 90 92 92 91 89 88 88 89 89 89 89 89
106 106 107 107 107 107 107 107 108 109 110 111 111 112 113 113 113 113 114 114 115 115 116 116 117 117 117 118 118 118 118 118 117 117 116 115 114 113 112 111 109 108 108 107 106 105 104 103 103 102 102 102 102 102 102 101 101 99 98 96 94 92 92 91 90 89 88 87 85 85 86 87 87 87 89 89 87 86 87 87 88 87 87 87 88
108 108 108 108 107 108 108 108 109 110 110 111 111 111 111 111 111 112 112 112 113 114 114 115 115 115 115 116 115 115 115 114 114 113 112 111 110 108 107 105 104 104 103 102 101 100 100 100 99 99 99 100 100 100 100 99 98 96 94 91 90 89 88 88 88 87 86 85 84 84 85 86 85 85 87 88 86 86 87 87 88 87 86 87 88
110 109 109 109 109 110 110 110 111 111 111 111 111 110 110 110 111 111 111 112 112 112 113 113 113 113 112 112 111 111 110 110 109 108 107 106 105 103 101 99 99 99 98 98 97 97 97 97 97 97 98 98 98 98 98 97 95 92 90 88 87 86 86 86 86 86 85 85 84 83 84 85 85 85 86 87 86 86 87 87 87 87 86 87 88
109 110 110 110 110 111 111 111 111 111 110 110 110 110 110 110 110 110 110 110 110 110 110 109 109 108 108 107 107 106 105 105 104 103 102 101 99 98 96 95 95 94 94 94 94 94 95 95 95 96 96 97 97 97 95 93 91 88 87 86 85 84 84 85 86 86 86 86 84 83 83 84 85 86 86 87 86 86 87 87 87 87 86 85 86
106 106 107 107 108 108 108 108 108 108 107 107 107 107 107 107 107 107 107 106 106 106 105 105 104 103 103 102 102 101 100 100 98 97 96 95 94 94 93 92 91 91 90 91 92 92 93 94 94 94 94 95 95 95 93 90 87 85 84 84 83 83 83 85 86 86 86 85 84 83 83 83 84 85 86 87 86 86 85 85 86 87 85 84 84
101 101 101 102 103 103 103 103 103 103 103 102 102 102 102 102 102 102 102 102 101 100 100 99 99 98 98 97 97 96 95 94 93 92 92 91 91 90 89 89 88 88 89 89 90 90 91 91 92 91 91 92 92 92 91 89 86 83 83 83 83 83 83 85 86 86 85 84 83 83 83 83 83 84 85 86 86 86 85 84 85 86 84 83 83
94 94 95 95 96 96 97 97 97 97 97 97 96 96 96 96 96 97 96 96 95 95 95 94 94 93 93 92 92 91 91 90 89 88 88 88 88 87 87 86 87 87 87 88 88 88 88 88 89 89 89 89 89 89 89 88 85 83 83 82 82 83 84 85 85 84 84 83 82 82 81 82 82 82 82 84 85 86 85 84 85 85 83 82 81
87 87 88 88 89 90 90 90 91 91 91 91 90 90 91 91 91 91 91 90 90 90 89 89 88 88 88 88 87 87 86 86 85 85 85 85 86 85 85 85 85 85 86 86 85 85 86 86 86 86 86 87 87 87 88 87 86 84 83 82 82 82 84 84 83 83 83 82 82 82 81 80 80 79 80 82 84 85 86 85 84 83 82 81 81
82 82 83 84 84 85 85 85 86 86 86 85 86 86 86 86 86 86 86 85 85 85 84 84 84 84 84 84 84 83 83 83 83 83 84 84 84 83 83 83 83 84 84 84 84 84 84 84 85 85 85 85 85 86 86 87 87 85 83 82 82 82 82 81 81 81 81 81 81 81 80 80 79 79 79 80 81 83 84 84 83 81 81 81 81
79 80 80 81 81 82 82 82 82 82 82 82 82 82 82 82 82 81 81 81 80 80 80 80 80 80 80 80 80 80 80 81 81 82 82 82 81 81 81 81 82 82 81 82 82 82 82 82 83 84 84 84 84 85 86 86 86 85 83 82 82 81 81 79 79 79 79 79 80 80 80 80 80 79 79 79 79 80 82 82 83 82 81 81 82
77 77 78 78 79 79 79 79 79 79 79 78 78 78 78 78 77 77 77 77 77 77 77 77 77 77 78 78 78 78 79 79 79 80 80 80 80 80 80 80 80 80 79 80 80 80 81 81 82 83 84 84 84 85 85 85 85 84 83 82 80 79 79 78 78 78 77 78 78 79 80 81 80 80 80 79 79 78 78 79 81 82 82 81 81
74 75 75 76 76 76 76 76 76 76 76 75 75 74 74 74 74 74 74 74 74 74 74 74 75 75 76 76 77 77 77 77 78 78 78 79 79 79 80 79 79 79 78 78 78 78 79 80 81 83 84 84 84 84 84 84 84 83 82 81 80 78 77 76 76 76 75 76 77 78 79 81 81 81 80 79 78 77 77 77 79 80 81 81 80
72 72 73 73 73 73 72 72 72 72 72 72 71 71 71 71 71 71 71 72 72 73 73 73 73 74 74 75 75 76 76 76 77 77 77 78 79 79 79 79 78 78 77 77 76 77 77 78 80 81 83 84 84 84 84 84 83 83 82 81 79 78 76 75 75 74 74 74 75 76 78 80 81 81 80 79 78 77 76 76 77 77 78 79 79
70 70 70 70 70 70 70 69 69 69 69 69 69 69 69 70 70 70 70 71 71 72 72 73 73 73 73 73 74 75 76 76 77 76 77 77 78 79 78 78 78 78 77 76 76 77 77 78 79 80 81 82 83 83 83 83 83 82 81 79 78 77 76 75 74 73 73 73 74 75 76 77 79 80 80 80 79 77 76 75 75 75 76 77 77
67 67 67 67 67 67 67 66 66 67 67 67 67 67 68 68 69 69 69 70 71 71 72 72 72 72 72 73 74 75 76 77 77 76 76 76 77 77 77 77 77 77 77 77 77 77 77 78 79 80 80 80 81 81 82 82 82 81 80 79 78 77 75 74 73 73 73 73 73 73 74 75 76 77 78 79 80 80 79 77 75 75 75 74 74
64 64 64 64 64 64 64 64 65 65 65 66 66 66 67 68 68 69 69 70 70 71 71 71 71 71 72 73 74 75 76 77 77 76 76 76 75 75 75 76 77 77 77 77 77 77 77 77 78 78 78 79 79 79 80 80 80 79 79 79 78 77 75 74 73 72 72 72 72 72 73 73 74 74 76 77 78 80 81 80 78 76 75 73 71
62 62 62 62 62 62 62 63 64 64 64 65 65 65 66 67 68 68 68 69 70 71 71 71 71 71 72 73 73 74 75 76 76 75 75 75 74 74 75 76 77 77 78 77 76 76 76 77 77 77 76 77 77 78 78 78 78 78 78 78 78 77 76 74 73 72 71 71 71 71 72 72 73 73 74 75 76 78 80 80 80 80 78 75 72
60 60 60 60 60 60 61 61 62 62 63 64 64 65 65 66 67 68 68 69 69 70 71 71 71 71 71 71 72 72 73 74 75 75 75 74 73 73 75 76 77 78 77 76 75 75 75 76 76 76 75 75 75 76 76 76 76 76 76 76 76 76 76 75 74 73 72 71 70 70 71 71 71 72 72 73 74 76 77 78 79 80 80 78 76
58 58 58 59 59 59 60 60 61 61 62 63 64 64 65 66 66 67 68 69 70 70 70 70 70 70 69 69 70 70 71 72 73 75 75 75 73 72 73 75 76 76 76 75 75 74 74 74 74 74 74 74 74 74 74 74 75 75 75 75 75 75 74 74 74 73 73 72 71 70 70 70 70 70 71 71 72 74 75 76 77 78 79 79 79
56 57 57 58 58 58 59 60 60 61 62 62 63 64 65 66 66 66 67 68 69 69 69 69 68 68 68 68 68 68 69 70 72 73 74 75 74 73 73 74 75 75 74 74 74 74 74 73 73 73 73 72 72 72 72 72 72 72 73 73 74 74 74 74 74 73 72 71 71 70 69 68 68 69 69 70 70 71 72 73 74 75 75 77 77
56 56 57 58 58 58 59 60 60 61 61 62 62 63 64 65 66 66 66 66 66 66 67 67 66 67 67 67 66 66 67 69 70 71 71 72 72 72 73 74 74 74 73 73 73 73 73 73 72 72 72 72 72 72 72 71 71 71 71 71 71 72 72 72 72 72 72 71 70 69 69 68 67 67 67 67 68 68 69 70 71 72 72 73 74
56 56 57 58 58 58 58 59 59 60 60 61 61 62 62 63 64 65 66 66 66 65 64 63 63 64 64 65 65 65 66 68 68 69 69 68 68 69 71 72 72 72 73 73 73 73 73 72 71 71 70 70 70 70 71 71 71 70 70 70 70 70 70 69 69 68 68 68 68 68 67 67 66 66 66 66 65 66 67 67 68 69 70 70 71
56 56 56 57 57 57 57 57 58 59 59 59 60 60 61 61 61 62 63 64 65 66 65 64 62 62 62 62 63 64 65 66 66 66 66 65 65 66 68 69 70 70 70 70 70 71 72 72 71 70 70 69 68 68 68 68 69 69 69 69 68 68 68 67 67 66 66 65 65 65 64 64 65 65 65 65 66 66 66 66 67 67 67 68 69
54 54 55 56 56 56 56 56 57 57 57 58 58 58 58 59 59 60 61 61 62 64 65 66 65 64 62 61 61 62 64 64 64 64 63 63 62 63 65 66 66 67 68 67 67 68 69 70 70 70 70 69 68 67 67 66 66 66 66 66 66 65 65 65 65 65 65 65 64 64 64 63 63 62 62 63 63 64 65 66 66 66 66 67 67
53 53 54 54 55 55 55 55 55 56 56 56 56 57 57 58 58 59 59 60 61 62 63 64 65 64 63 61 60 60 62 63 63 63 62 62 61 61 62 62 63 64 65 65 65 65 65 66 67 67 68 68 67 66 65 65 64 64 63 63 63 63 63 63 63 63 63 63 63 63 63 63 63 62 62 62 62 62 63 64 65 66 67 67 67
52 52 52 53 53 53 53 53 54 54 55 55 56 56 57 57 57 58 58 59 60 61 61 62 63 63 62 62 61 60 61 61 62 61 60 60 59 59 59 60 61 61 62 63 63 63 63 63 63 63 64 64 64 63 63 62 62 62 62 62 62 62 62 62 62 62 62 62 62 62 62 62 63 63 63 63 62 62 62 62 62 63 64 65 66
50 51 51 52 52 52 52 53 53 54 54 54 55 55 55 56 57 57 58 59 59 60 60 61 61 61 61 61 61 60 60 60 60 60 59 58 57 58 58 58 59 60 60 61 61 61 61 60 60 60 60 61 61 61 61 61 61 61 61 61 61 61 62 62 61 61 61 61 61 61 61 61 62 62 62 62 62 62 62 62 62 62 62 63 64
49 50 50 51 51 52 52 52 53 54 54 54 54 54 55 55 56 57 57 58 58 59 59 59 60 59 59 59 58 58 58 59 59 59 58 58 57 57 57 57 58 58 58 58 58 58 58 58 58 58 58 58 59 60 60 60 60 60 60 60 60 61 61 61 61 61 61 61 61 61 61 60 61 61 61 61 61 61 61 62 62 62 61 61 61
49 49 49 49 50 51 51 52 53 53 53 53 53 54 54 55 56 56 57 57 57 58 58 58 58 57 57 56 56 56 57 57 58 58 58 57 57 56 55 55 56 56 56 56 56 56 56 56 56 56 56 56 57 57 58 58 58 58 58 58 58 59 59 60 60 60 61 61 61 61 61 61 60 60 60 60 59 58 58 58 59 59 60 59 59
49 48 48 48 49 50 50 51 52 51 52 52 53 53 54 55 55 55 56 56 56 56 56 56 55 55 55 55 55 55 56 56 56 56 56 56 56 55 55 55 54 54 54 54 54 54 54 54 54 54 55 55 55 55 55 55 56 56 56 56 56 57 57 58 58 59 59 59 60 60 59 59 59 58 58 58 58 57 57 57 57 57 58 58 58
48 48 48 48 48 49 50 50 51 51 51 52 52 52 53 54 54 54 54 54 54 54 54 54 54 54 54 54 54 55 55 55 55 55 55 55 55 55 55 54 54 53 53 53 53 52 52 52 52 52 53 53 53 54 54 54 54 55 55 55 56 56 56 56 56 56 56 56 56 56 56 56 56 56 56 56 56 56 56 56 56 56 56 57 57
47 47 47 48 48 49 49 49 50 50 51 52 52 52 53 53 53 53 53 53 53 53 53 53 53 53 54 54 54 54 54 54 54 54 54 54 54 54 53 53 53 53 52 52 52 51 51 51 51 52 52 52 52 53 53 54 54 54 55 55 55 54 54 53 53 52 52 52 52 52 52 52 52 53 53 53 54 54 54 54 54 54 55 55 56
46 46 47 48 48 48 48 49 49 50 51 51 51 52 52 52 52 52 52 52 52 52 52 52 53 53 52 52 52 52 52 52 52 52 52 52 52 52 52 52 52 51 51 51 51 50 51 51 51 51 51 52 52 52 52 52 53 53 53 53 53 52 51 50 50 49 49 49 49 49 49 49 49 50 50 51 51 51 51 51 51 52 52 53 53
45 45 46 47 48 48 48 48 49 50 50 50 51 51 51 51 51 51 51 51 51 51 51 51 51 51 51 51 51 51 51 51 51 51 51 51 51 50 50 50 50 49 49 49 49 49 49 49 50 50 50 50 50 50 50 50 50 50 50 50 50 49 49 48 48 47 47 47 47 47 47 47 47 47 47 48 48 48 48 47 48 48 49 49 50
44 45 46 47 47 47 47 48 49 49 49 49 50 50 50 50 49 49 49 49 50 50 50 50 50 50 50 50 50 50 50 50 49 49 49 49 49 48 48 48 47 47 47 47 47 47 47 47 47 47 47 47 47 46 46 46 46 46 47 47 47 47 47 47 47 46 46 46 46 45 45 45 44 44 44 45 45 45 44 44 44 45 45 46 46
44 45 46 46 47 47 47 48 48 48 48 48 48 48 49 48 48 48 48 48 48 49 49 49 49 49 49 49 49 49 48 48 48 48 47 47 47 46 46 46 45 45 45 45 45 45 45 45 45 44 44 45 45 44 44 44 45 45 45 45 45 45 45 45 45 45 45 44 44 43 42 42 42 42 42 42 42 42 42 41 41 42 42 43 43
44 45 45 46 46 46 47 47 47 47 47 47 47 47 47 47 47 47 47 47 47 47 47 47 47 47 47 47 47 47 47 46 46 46 46 46 46 45 45 44 43 43 43 43 43 43 43 43 43 43 43 43 44 43 43 43 43 44 43 43 43 43 43 43 43 43 42 42 41 41 40 40 40 40 40 40 40 40 40 39 39 39 40 40 40
43 44 45 45 45 45 46 46 46 46 46 46 46 46 46 46 46 46 46 46 46 46 46 46 46 46 46 45 45 45 45 45 45 45 45 45 44 44 43 42 42 42 42 42 42 42 42 42 42 42 43 43 43 43 43 43 42 42 42 42 42 42 42 41 41 40 40 39 39 39 39 38 38 38 38 37 37 37 37 37 37 37 37 38 38
43 44 44 44 44 45 45 45 46 46 45 45 45 45 44 45 45 45 45 45 45 45 45 45 44 44 44 44 44 44 44 44 44 44 44 44 43 43 42 42 41 41 42 42 42 42 42 42 42 42 42 42 42 42 42 41 41 41 41 41 40 40 40 39 38 38 38 38 38 38 37 37 36 36 35 35 34 34 34 34 34 34 34 34 35
Wind_Direction
271 271 271 271 271 271 271 272 272 272 272 273 273 273 273 274 274 274 274 274 274 274 273 273 273 273 273 273 273 274 274 274 274 275 275 275 276 276 276 276 276 276 276 276 276 276 276 276 276 276 276 276 276 276 275 275 275 274 274 274 273 273 273 273 272 272 272 272 272 272 272 272 272 272 271 271 270 269 268 268 267 267 267 266 266
270 271 271 272 273 273 273 274 274 274 274 274 274 274 275 275 275 275 275 275 275 275 275 275 275 275 275 275 275 275 275 275 276 276 277 277 277 277 277 277 277 278 278 278 278 278 278 278 278 278 278 277 277 277 277 276 276 276 275 275 274 274 274 274 273 273 273 273 273 273 273 273 272 272 271 271 270 270 269 268 268 267 266 265 265
271 271 271 272 273 273 274 274 274 274 275 275 275 275 275 275 275 275 276 276 276 276 276 277 277 277 276 276 276 276 276 277 277 277 278 278 278 278 278 278 279 279 279 279 279 279 279 279 279 279 279 279 278 278 278 278 277 277 277 276 276 276 276 275 275 274 274 274 274 274 273 273 272 272 271 271 270 270 269 269 268 267 266 265 264
271 271 271 272 272 272 273 273 274 274 275 275 275 275 275 276 276 276 276 276 277 277 277 277 277 277 277 277 277 277 277 278 278 278 278 278 278 279 279 279 279 279 280 280 280 280 280 280 280 280 279 279 279 279 279 279 279 278 278 278 278 277 277 276 276 275 275 274 274 273 273 273 272 272 271 271 270 270 269 268 268 267 266 265 264
271 271 271 272 272 273 273 274 274 275 275 275 275 275 275 276 276 276 276 276 276 277 277 277 277 277 277 277 277 278 278 278 278 278 278 278 279 279 279 279 280 280 280 280 280 280 280 280 280 280 280 280 280 280 280 280 280 280 279 279 279 278 278 277 277 276 275 275 274 273 273 272 272 271 271 270 270 269 269 268 267 267 266 266 265
272 273 273 274 274 274 275 275 275 275 275 275 275 275 275 275 276 276 276 276 276 276 276 276 277 277 277 277 278 278 278 279 278 278 278 279 279 279 279 280 280 280 280 280 280 280 280 280 280 280 280 280 280 280 280 280 280 280 280 279 279 278 278 277 277 276 275 275 274 273 273 272 271 271 270 270 269 269 268 267 267 267 266 266 266
273 274 275 275 275 275 275 275 275 275 275 275 275 275 275 276 276 276 276 276 276 276 276 276 277 277 278 278 278 279 279 279 279 279 279 279 279 280 280 280 280 280 281 281 281 281 280 280 280 280 280 280 280 280 280 280 280 280 279 279 278 278 278 277 276 276 275 275 274 273 272 271 271 270 270 269 268 268 267 266 267 267 267 266 266
274 274 274 274 274 274 274 274 275 275 275 275 275 275 275 276 276 276 276 276 276 276 276 277 277 278 278 278 279 279 279 279 279 279 279 280 280 280 280 281 281 281 281 281 281 281 281 281 280 280 280 280 280 280 280 280 279 279 278 278 278 277 277 276 276 275 275 274 273 273 272 271 270 269 268 268 267 266 266 266 266 267 267 267 266
274 274 273 273 273 273 274 274 274 274 274 275 275 275 275 275 276 276 276 276 276 276 277 277 278 278 279 279 279 279 279 279 280 280 280 280 280 281 281 281 281 281 281 281 281 281 281 281 281 281 280 280 280 280 280 279 278 278 278 277 277 277 277 276 276 276 275 274 273 272 271 270 270 269 268 267 266 266 266 266 266 266 266 266 266
274 274 273 273 273 274 274 274 274 274 274 275 275 275 275 275 276 276 276 276 277 277 277 278 278 278 279 279 279 279 280 280 280 280 280 280 281 281 281 281 281 281 281 281 281 281 281 281 281 280 280 280 280 279 279 278 278 278 277 277 277 277 277 277 276 276 275 274 273 272 272 271 270 269 268 267 267 267 267 267 267 266 266 266 265
274 274 274 274 274 274 274 274 274 275 275 275 275 275 275 275 275 276 276 276 277 277 277 277 278 278 278 279 279 279 280 280 280 280 280 280 281 281 281 281 281 281 282 281 281 281 281 281 280 280 280 279 279 278 278 278 278 277 277 277 278 278 278 277 277 276 275 274 273 273 272 271 270 269 269 268 268 268 268 268 267 266 266 265 265
275 275 275 275 275 275 275 275 275 275 275 275 275 274 274 275 275 275 275 276 276 276 277 277 277 278 278 279 279 279 279 280 280 280 280 281 281 281 281 281 281 282 282 281 281 281 280 280 280 280 279 279 278 278 278 278 278 278 278 278 279 279 278 278 277 276 275 274 274 273 272 271 270 270 269 269 269 269 269 268 267 267 266 266 265
276 276 276 276 276 276 276 276 276 275 275 275 274 274 274 274 275 275 275 275 276 276 277 277 278 278 278 279 279 279 279 280 280 280 281 281 281 281 281 282 282 282 281 281 280 280 280 280 279 279 279 279 278 278 278 278 278 279 279 280 280 279 279 278 277 276 276 275 274 273 272 271 271 270 270 270 270 270 269 268 267 267 266 266 266
277 277 277 277 277 277 276 276 276 275 275 275 275 275 275 275 276 276 276 276 277 277 277 278 278 278 278 279 279 279 280 280 280 281 281 281 281 281 282 282 281 281 281 280 280 280 280 279 279 279 279 279 279 279 279 279 279 280 280 280 280 280 279 278 278 277 276 275 274 273 272 272 271 271 271 271 270 270 269 268 267 267 266 266 265
277 277 277 277 277 276 276 276 276 276 276 276 276 277 277 277 277 277 277 277 278 278 278 278 278 278 279 279 279 280 280 280 281 281 281 281 281 281 281 281 280 280 280 280 280 280 280 279 279 279 279 279 280 280 280 280 280 281 281 281 280 280 279 279 278 277 276 274 274 273 273 273 273 272 271 271 270 269 269 268 268 267 266 266 265
276 276 276 276 276 276 276 276 276 277 277 277 278 278 278 278 278 278 278 278 278 278 278 278 279 279 280 280 280 280 281 281 281 281 281 281 281 281 281 280 280 280 280 280 280 280 280 280 280 280 280 280 280 280 280 280 281 281 281 280 280 279 279 278 277 276 275 275 274 274 274 273 273 273 272 271 270 269 268 268 268 267 266 266 265
276 276 276 276 276 276 277 277 277 277 278 278 278 278 278 278 278 278 278 278 278 279 279 280 280 280 280 281 281 281 281 280 280 281 281 281 281 280 280 280 280 280 280 280 280 280 280 280 280 280 280 280 280 280 280 280 280 280 280 280 279 279 278 277 276 275 275 275 275 275 274 273 273 272 272 271 270 269 268 268 267 267 266 266 265
277 277 277 277 277 277 277 277 277 278 278 278 278 278 278 278 278 278 278 279 279 280 280 280 280 281 281 280 280 280 280 280 280 281 281 280 280 280 280 280 280 280 280 279 279 279 279 280 280 280 280 280 280 281 281 280 280 280 280 279 278 278 277 276 275 275 275 275 275 275 274 273 273 272 271 271 271 270 269 268 267 266 266 265 265
277 277 277 277 277 277 277 277 278 278 278 278 278 278 279 279 279 279 279 280 280 280 280 280 280 280 280 280 280 280 280 280 280 280 280 280 280 280 280 280 280 280 279 279 279 279 279 279 280 280 280 280 280 280 281 281 281 280 279 278 278 277 276 276 276 276 276 276 275 274 273 272 272 271 271 271 270 270 269 268 267 267 267 266 265
279 279 278 278 278 278 278 278 279 279 279 279 279 279 279 279 279 279 280 280 280 280 280 279 279 279 279 279 280 280 280 280 280 280 280 280 280 280 280 280 280 280 280 280 280 280 280 280 280 280 280 280 280 280 281 281 280 279 278 278 277 277 276 277 277 277 276 276 275 274 272 271 270 270 269 269 269 269 269 268 268 268 268 267 266
281 281 281 281 281 280 280 280 280 280 280 280 280 280 279 279 279 279 279 279 279 279 279 279 279 279 279 280 280 280 281 281 281 281 280 280 281 281 281 281 280 280 280 281 281 280 280 281 281 280 280 280 280 281 281 280 280 280 279 279 278 277 277 277 277 277 276 275 274 274 272 271 270 269 268 268 268 269 270 270 269 269 268 268 267
283 283 282 282 281 281 281 281 281 281 280 280 280 279 279 279 279 279 279 279 279 279 279 279 279 280 280 280 281 281 281 281 281 281 281 281 281 281 281 281 281 281 281 281 281 281 281 281 281 281 281 281 281 281 280 280 280 280 280 279 279 278 278 277 276 276 275 275 274 274 273 272 271 270 269 268 267 268 269 270 270 269 268 268 267
283 282 282 281 281 281 281 281 281 280 280 280 279 279 279 279 279 279 279 279 279 279 280 280 280 280 281 281 281 281 281 281 281 281 282 282 282 282 281 281 281 281 281 281 281 281 281 282 282 281 281 281 281 281 280 280 280 280 279 279 278 277 277 276 276 275 275 275 274 274 274 273 272 271 269 268 267 267 267 268 268 269 268 267 266
282 282 282 281 281 281 281 281 280 280 280 280 280 280 280 280 280 280 280 280 280 280 280 281 281 281 281 281 281 282 282 282 282 282 283 283 283 282 282 282 282 282 281 281 281 281 282 282 282 282 282 282 281 281 281 280 280 280 279 279 278 277 276 275 275 275 275 274 274 274 274 274 273 272 270 270 269 268 267 266 266 266 266 266 266
283 282 282 282 282 281 281 281 281 281 281 281 281 281 281 281 281 281 281 281 281 281 282 282 282 282 282 283 283 283 283 283 283 283 284 284 284 284 284 284 283 283 282 282 282 282 282 282 282 282 282 282 282 281 281 280 280 279 279 279 278 277 277 276 275 274 274 273 273 273 273 273 273 273 272 271 270 268 267 265 265 265 265 265 265
283 283 282 282 282 282 282 281 282 282 282 282 282 282 282 282 282 282 282 282 282 283 283 283 283 284 284 284 284 284 284 284 284 284 284 284 284 285 285 284 284 284 284 284 283 283 283 283 282 282 282 281 281 281 281 280 280 280 279 279 278 278 277 276 275 275 274 273 272 272 272 272 273 274 274 273 272 270 267 265 264 264 263 263 264
284 283 283 283 283 283 283 283 283 283 283 283 283 282 282 282 283 283 283 283 284 284 284 284 285 285 285 285 285 285 285 285 285 285 285 285 285 285 285 285 285 284 284 284 284 284 283 283 282 281 281 280 280 280 280 280 281 281 280 280 279 278 277 276 276 275 274 273 272 272 271 271 271 272 272 273 273 272 270 268 266 264 263 262 262
285 284 284 284 284 284 284 284 283 283 283 283 283 283 283 283 284 284 284 284 285 285 285 285 285 285 285 285 286 286 286 286 287 286 286 286 285 285 285 285 285 285 284 284 284 284 284 283 282 281 281 280 280 280 280 281 281 281 281 280 280 279 278 277 276 275 274 273 272 272 271 270 270 270 270 271 271 272 272 271 269 267 264 262 260
285 285 285 284 284 284 283 283 283 283 283 283 283 284 284 284 285 285 285 285 286 286 286 286 286 286 286 286 287 287 287 287 287 287 286 286 286 286 286 285 285 285 285 285 285 285 284 283 282 282 281 281 281 281 281 281 281 281 281 280 280 280 280 279 277 276 274 273 272 271 271 270 270 269 269 269 269 269 270 271 271 270 268 266 262
286 285 285 284 284 284 283 283 283 284 284 284 284 285 285 285 286 286 286 287 287 287 287 287 287 287 287 287 287 287 287 287 287 287 286 285 286 286 286 287 287 286 286 286 286 285 284 283 283 283 282 282 282 282 282 282 281 281 280 280 280 280 280 279 278 277 276 274 273 272 271 270 269 269 268 268 267 267 268 268 269 270 270 269 267
287 286 286 285 285 285 285 285 285 285 286 286 286 287 287 287 287 288 288 288 288 288 288 288 288 288 288 287 287 287 287 287 287 287 287 287 287 287 287 287 287 286 286 286 286 285 284 284 283 283 283 283 282 282 282 282 282 281 281 281 280 280 279 279 278 278 277 276 275 274 273 272 271 270 269 268 267 266 266 266 266 267 268 269 269
289 288 288 287 287 287 287 287 287 288 288 288 289 289 289 289 289 289 289 289 289 289 289 289 289 288 288 287 287 287 287 287 287 288 288 289 290 290 289 287 287 286 286 286 286 285 285 285 285 285 284 284 283 283 282 281 281 281 281 281 280 280 280 280 279 279 278 278 277 276 275 273 272 271 270 269 268 267 267 266 266 265 266 266 267
291 291 290 290 290 290 290 290 290 290 290 290 290 291 291 291 291 290 290 289 289 288 288 289 289 289 288 288 288 288 288 287 287 287 288 288 289 289 288 288 288 288 288 287 287 287 286 286 286 286 286 285 285 284 284 283 282 281 280 280 279 279 279 279 279 279 280 279 279 278 277 276 274 273 271 270 269 268 268 267 266 266 265 265 265
293 293 292 292 292 292 292 292 292 292 292 292 292 292 292 292 292 292 291 291 290 289 288 288 288 289 289 290 290 289 288 288 287 287 287 288 288 288 288 288 289 289 289 289 289 288 288 287 287 286 286 285 285 285 285 284 284 283 283 282 281 281 280 280 279 279 278 278 278 278 277 277 276 275 273 272 270 268 267 266 265 265 265 265 264
295 294 294 294 294 294 294 294 293 293 293 293 293 292 292 292 291 291 291 291 292 292 292 292 291 290 290 290 290 289 288 288 288 288 288 288 288 288 288 288 289 289 288 289 289 289 289 289 288 287 287 286 286 285 285 285 285 285 284 284 284 283 283 282 282 281 279 278 277 276 275 274 274 273 273 272 272 271 269 268 266 265 264 263 263
296 296 296 296 295 295 295 295 294 294 293 293 293 292 292 292 292 292 292 293 294 294 294 294 294 293 293 292 292 291 291 291 290 290 290 290 290 289 289 289 289 289 288 288 288 288 288 288 288 288 288 288 288 287 287 286 286 286 285 285 284 284 283 283 282 281 280 279 279 278 276 275 274 272 271 270 270 270 270 270 269 268 267 265 264
298 297 297 296 296 296 296 295 295 295 294 294 294 294 293 294 294 295 295 295 294 294 294 295 295 296 296 296 295 294 294 294 293 293 293 293 292 292 291 291 291 290 290 289 288 288 287 287 288 288 288 289 289 289 289 288 288 287 286 285 284 283 283 282 281 281 280 280 279 279 279 278 277 275 274 272 270 268 267 267 267 268 268 267 267
298 298 297 297 297 297 297 296 296 296 296 296 296 296 296 297 297 296 296 296 296 296 296 297 297 298 298 298 297 297 296 295 294 294 294 294 294 294 294 293 293 292 292 291 291 290 289 289 289 289 289 289 289 289 289 288 288 287 286 286 285 284 284 283 282 282 281 281 280 279 279 278 278 277 276 275 273 272 270 268 266 265 265 265 265
299 299 299 299 299 299 299 299 298 297 297 297 298 298 298 298 298 297 297 298 298 298 298 298 298 299 299 299 298 298 297 297 296 296 296 296 296 295 295 295 294 294 293 293 292 292 291 291 290 290 289 289 289 289 289 288 287 287 287 286 286 285 285 284 284 283 282 281 280 279 278 278 277 276 276 275 275 274 273 271 269 267 265 264 263
300 301 301 301 301 301 301 300 299 299 299 300 300 300 299 299 299 299 300 300 300 300 300 299 299 299 299 299 299 299 298 298 298 297 297 297 297 296 296 295 295 294 294 293 293 292 292 291 291 290 290 290 290 289 289 289 289 288 288 287 287 287 286 286 285 285 284 283 282 281 281 280 279 278 277 276 275 274 273 272 272 270 268 266 264
302 302 302 302 302 301 300 300 300 300 301 302 301 301 301 301 301 301 301 301 301 300 300 300 300 300 300 300 300 300 299 299 299 299 298 298 298 297 297 296 296 295 295 294 293 293 293 293 292 292 291 291 290 290 290 290 289 289 288 288 287 287 286 286 286 285 285 285 284 283 283 282 281 280 279 278 277 275 274 273 272 271 270 269 268
303 303 303 302 302 301 301 301 301 302 303 303 303 303 303 303 303 302 302 302 301 301 301 301 301 302 302 302 302 301 301 301 300 300 300 300 299 299 298 297 297 296 296 295 295 295 295 294 294 293 293 292 291 291 290 290 289 288 288 287 286 285 285 285 284 284 284 283 283 283 282 282 281 280 279 278 278 277 275 274 273 272 271 271 270
303 303 303 303 303 302 302 303 304 305 304 304 304 304 304 303 303 303 303 303 303 303 304 304 304 304 304 304 303 303 302 302 301 301 301 301 300 300 299 299 298 298 298 297 297 297 296 296 295 294 294 293 293 292 291 291 290 289 289 288 287 286 286 285 284 284 283 283 282 282 281 280 280 279 279 278 277 276 276 275 274 273 272 272 271
304 304 304 304 304 304 305 306 306 306 305 306 306 306 305 305 305 305 305 305 306 306 306 306 306 306 305 305 304 304 303 303 303 302 302 302 301 301 301 301 300 300 300 300 300 299 298 298 297 296 295 295 294 294 294 293 292 291 291 290 289 288 287 286 285 284 284 283 282 281 280 280 279 279 278 277 276 275 275 274 274 273 272 272 271
306 306 306 306 306 306 307 308 307 307 307 307 307 307 307 307 307 307 307 307 308 307 307 307 307 306 306 306 305 305 304 304 304 303 303 303 303 302 302 302 302 302 302 302 301 300 300 299 298 298 297 296 296 295 295 294 293 292 291 291 290 289 289 288 288 287 286 285 284 283 282 281 280 279 278 277 276 275 274 274 273 272 271 270 270
308 308 307 307 307 308 309 308 308 308 308 308 308 308 308 308 308 308 309 309 308 308 308 307 307 307 307 306 306 306 305 305 305 304 304 304 304 303 303 303 303 303 303 303 302 301 301 300 299 299 298 297 297 296 295 294 293 293 292 292 292 292 292 292 291 290 289 288 287 285 284 283 282 281 279 278 277 276 275 274 273 271 270 269 269
309 309 309 308 309 310 310 309 309 309 309 309 309 309 309 309 310 310 309 309 309 309 309 309 308 308 308 308 307 307 307 306 306 306 305 305 305 305 305 305 306 306 305 304 303 303 302 301 300 300 299 298 298 297 296 296 295 295 295 295 295 295 295 294 294 293 292 290 289 288 287 286 284 283 281 280 279 278 277 275 274 272 271 270 269
311 310 310 310 311 311 311 310 310 310 310 310 310 310 310 310 310 310 310 310 310 310 310 310 309 309 309 309 309 309 309 308 308 308 308 308 308 308 308 308 308 308 307 305 304 303 303 302 302 302 302 301 301 300 300 299 299 298 298 298 297 297 296 295 295 294 293 292 291 290 289 288 287 286 284 283 282 281 279 278 276 274 272 271 269
312 311 311 311 312 312 311 310 311 311 311 311 311 311 311 311 311 311 311 311 311 311 310 310 310 310 311 311 311 311 311 311 310 310 310 311 310 311 310 310 310 309 308 307 306 306 306 306 306 306 305 305 304 303 303 302 302 301 301 300 299 298 297 297 296 295 295 294 293 293 292 291 289 288 287 285 284 282 280 279 277 275 273 271 270
313 312 311 312 312 312 311 311 312 312 312 312 312 312 312 312 312 312 312 312 312 312 312 312 313 313 313 313 313 313 313 313 313 313 312 312 312 312 312 312 312 312 311 310 310 310 309 309 309 309 308 307 306 306 305 304 304 303 303 302 301 300 300 299 299 298 298 297 296 295 294 293 291 290 288 286 284 282 280 278 276 274 272 271 269
313 312 312 312 313 313 313 313 313 313 313 313 313 313 313 313 313 313 313 314 313 314 314 314 315 315 315 315 315 315 315 315 315 314 314 314 315 315 316 316 316 315 314 313 312 312 312 312 311 310 309 309 308 307 307 306 306 306 305 304 303 303 302 302 302 301 300 300 298 297 296 294 292 290 288 285 283 281 280 278 276 274 272 271 269